Location: Windsor
(43.2292°N, 89.3015°W)
Time: 12:15:30
(UTC+00:00)

Envisat - Visible Passes

Search period start: 20 January 2022 00:00
Search period end: 30 January 2022 00:00
Orbit: 764 x 766 km, 98.2° (Epoch: 20 January)

Date Brightness Start Highest point End Pass type
(mag) Time Alt. Az. Time Alt. Az. Time Alt. Az.
20 Jan 5.4 09:47:07 10° NE 09:50:48 20° E 09:54:26 10° SE visible
20 Jan 3.1 11:25:10 10° N 11:30:06 52° WNW 11:35:00 10° SW visible
21 Jan 3.1 10:48:11 10° NNE 10:53:17 74° ESE 10:58:21 10° S visible
21 Jan 4.5 12:28:47 10° NNW 12:31:41 16° WNW 12:34:35 10° W visible
22 Jan 4.5 10:11:41 10° NNE 10:16:17 33° E 10:20:51 10° SSE visible
22 Jan 3.7 11:50:47 10° N 11:55:13 31° WNW 11:59:37 10° SW visible
23 Jan 5.7 09:36:06 10° NE 09:39:04 15° E 09:42:02 10° SE visible
23 Jan 2.9 11:13:30 10° N 11:18:33 66° WNW 11:23:33 10° SSW visible
24 Jan 3.5 10:36:39 10° NNE 10:41:41 58° E 10:46:40 10° S visible
24 Jan 4.3 12:16:43 10° NNW 12:20:14 19° WNW 12:23:45 10° WSW visible
24 Jan 6.3 23:34:55 10° WSW 23:36:43 12° W 23:38:32 10° WNW visible
25 Jan 4.9 10:00:20 10° NE 10:04:37 26° E 10:08:51 10° SSE visible
25 Jan 3.4 11:39:01 10° N 11:43:42 38° WNW 11:48:22 10° SW visible
26 Jan 5.9 09:25:27 10° ENE 09:27:20 12° E 09:29:13 10° ESE visible
26 Jan 2.8 11:01:52 10° NNE 11:06:58 83° WNW 11:12:03 10° SSW visible
26 Jan 4.7 12:43:27 10° NW 12:45:09 12° WNW 12:46:51 10° WNW visible
27 Jan 3.9 10:25:09 10° NNE 10:30:03 45° E 10:34:54 10° S visible
27 Jan 4.0 12:04:47 10° NNW 12:08:46 24° WNW 12:12:44 10° WSW visible
28 Jan 5.3 09:49:06 10° NE 09:52:55 21° E 09:56:43 10° SE visible
28 Jan 3.1 11:27:17 10° N 11:32:10 48° WNW 11:37:01 10° SW visible
29 Jan 3.0 10:50:16 10° NNE 10:55:23 79° ESE 11:00:28 10° S visible
29 Jan 4.5 12:31:01 10° NNW 12:33:43 15° WNW 12:36:26 10° W visible
